Vertical_Velocity
-8 0 2 -3 1 -4 2 1 -1 -3 -1 -2 1 -2 0 -1 -3 -0 1 -5 -5 -5 -2 -4 -3 -2 -2 1 0 2 0 0 -1 -1 -0 -1 -0 -2 -2 3 4 -3 -1 4 1 -6 6
0 -5 4 0 -1 0 -3 0 1 -2 -4 -1 3 -2 -2 -1 -2 -3 -1 -2 -7 -4 -6 -2 -4 -4 -1 -2 -1 -2 -2 1 -0 0 3 4 4 0 -6 -2 1 -8 -12 -9 -5 -1 0
-5 -3 -1 -0 1 3 -3 0 -1 0 -1 -4 1 -2 0 -0 -0 -4 -1 -2 -5 -4 -4 -5 -3 -7 4 -1 -1 -2 -1 -4 -2 0 2 3 1 -0 -7 3 -2 2 0 4 -3 -3 -5
-2 2 -3 -1 1 -0 -0 1 -0 1 -1 1 -2 -1 -2 -1 1 -2 -4 -1 -4 -6 -3 -4 -7 -7 1 2 1 1 -2 -4 -3 -3 0 -1 -1 -2 -2 -3 -8 -3 -4 -5 6 -1 7
3 -2 1 -1 0 -0 1 -1 1 -1 -2 -0 0 -1 -0 -0 -1 0 -4 -2 -2 -7 -4 -3 -11 -5 1 -3 -0 2 3 2 4 2 1 2 2 3 -5 3 3 1 -7 8 4 -4 2
-0 6 -1 1 -1 -2 2 -1 -2 0 -2 -1 -1 -0 -1 2 -3 -0 -3 -3 0 -14 -0 -2 -7 -6 1 -5 2 1 -1 3 2 -0 -1 1 1 -9 -1 7 -9 5 13 4 -1 -6 1
-1 3 -2 4 -3 -1 -1 -3 1 -2 -1 1 0 -1 2 -1 -2 -0 -1 -3 -8 -21 13 7 3 -6 2 8 1 -2 -1 0 4 2 2 13 7 -4 1 8 -3 2 -3 -1 -7 -1 4
-4 1 1 1 2 0 -2 -2 -3 -0 -1 1 1 0 2 -3 -3 2 -4 -2 2 -5 -45 10 -3 -5 1 2 4 -0 -0 2 -1 0 6 7 -12 -0 2 1 2 4 5 -7 -3 -6 3
-4 -2 1 1 1 1 -1 -0 -5 -2 -1 2 0 1 0 1 -2 1 -3 -1 2 -5 -16 4 0 1 5 -1 -5 -0 -2 -1 1 2 1 -1 0 -3 -3 -1 -1 5 -3 3 4 -1 -3
-1 -2 0 -0 1 1 1 -1 -2 -3 -1 1 -0 -0 -0 4 -1 1 -4 -4 -2 -4 -12 1 -3 -0 -3 3 -3 -10 -4 -5 -3 1 -3 -3 1 1 4 -0 3 5 8 1 -0 4 -2
0 1 -0 -3 1 2 -0 1 -0 -1 -3 1 -1 -0 2 3 -4 -2 1 -4 1 -6 4 -7 -1 -3 1 -1 4 -10 -0 0 2 12 5 3 1 2 -1 -1 2 -12 11 2 2 -3 0
-3 3 2 -2 2 -3 1 2 1 -1 -2 1 -2 -1 1 0 4 4 -1 1 1 -6 -7 -5 -5 -3 -2 -5 -3 -11 -2 -5 -5 -5 0 -4 1 -4 5 -0 -1 -3 -6 2 2 4 14
-2 2 2 -1 -1 1 -7 -2 -2 -1 -0 2 -2 1 -2 -0 -2 2 4 -2 6 -3 -5 9 -1 -8 -0 -5 -5 -3 2 1 1 -3 3 14 -3 17 -1 -3 12 1 2 -3 -1 9 -14
-1 5 2 -11 -5 -4 5 -0 -3 -0 -1 2 -2 -0 2 -2 0 4 3 2 4 -1 -6 -6 -2 0 -4 -2 2 -1 -2 4 2 -1 -3 5 -10 6 -5 -2 -1 -7 -7 -1 0 1 -9
-2 0 6 -3 -4 -5 4 10 5 0 1 2 -3 0 -1 4 2 3 8 8 -10 1 -4 -2 2 1 0 2 -9 -6 -2 1 -5 -2 -2 -1 1 -5 -5 2 0 8 -6 -5 8 -9 18
2 -9 9 -5 -2 2 6 2 -1 0 -0 7 -1 -1 -2 1 5 7 5 1 -1 -1 0 1 -1 -3 -1 -0 -3 -3 -5 -1 2 2 -1 -4 -8 -3 5 -3 2 -5 2 2 7 2 0
1 3 2 -1 -1 -4 5 9 0 3 -0 9 9 5 7 3 11 8 -1 -2 -1 1 9 7 2 1 2 -0 -7 -0 5 -3 5 -2 -1 -0 2 0 10 6 4 3 2 8 19 11 3
4 2 2 2 -2 4 11 13 20 21 21 3 20 19 -0 10 10 2 -4 -1 3 -2 -0 -1 2 2 -1 2 -2 -1 6 -5 -0 0 -2 -5 -6 -8 -2 -26 6 11 9 1 2 -12 -9
-1 5 -2 -7 11 3 6 5 5 11 7 19 11 25 -2 5 4 1 -1 2 6 5 1 -3 1 -1 -1 1 1 1 4 2 1 -1 -1 -5 2 -10 -22 22 -3 12 -6 7 12 14 -12
4 -1 -1 -5 -2 6 -4 12 7 16 19 13 3 12 6 -0 1 4 1 -1 3 0 -4 -1 -0 3 3 2 1 4 1 2 -1 -1 -7 -4 -5 -0 -1 -2 2 -6 2 -2 14 16 -14
3 -0 -4 -2 14 3 3 14 7 8 15 11 5 -4 -5 -12 -6 -0 6 2 -1 -2 1 0 4 4 2 -2 -1 -5 -2 -2 -2 -3 -6 -5 -2 -6 -8 -10 2 1 -2 4 12 -4 32
2 7 -9 17 -5 0 0 1 2 3 2 6 6 14 6 -2 -1 8 5 -2 1 0 -1 -0 -6 -4 -1 -5 -4 -4 -0 -1 -2 2 0 2 -8 4 -11 -3 1 -6 1 6 6 0 0
0 29 -1 17 2 6 3 2 -4 3 -0 -3 4 -1 2 6 2 2 -0 1 4 3 -0 -3 -2 -2 1 -1 -2 -2 -2 1 -2 -0 7 1 1 1 -20 -0 1 -9 4 6 5 2 16
-9 10 11 11 2 -1 -2 2 -4 -6 3 -3 4 8 3 -1 5 2 1 2 -2 -7 -6 -2 -1 1 -7 1 -1 -3 -4 -3 -2 -3 9 -2 3 7 -11 0 7 -5 22 -3 -2 6 -0
-4 12 -3 0 0 -1 1 -0 1 -1 7 6 5 6 4 -3 -3 -3 -0 -3 -2 -0 1 2 1 -1 -0 -1 -2 -4 0 -0 -2 -2 1 -5 1 9 3 4 -15 -32 10 -4 3 -39 11
5 -1 -0 -5 2 3 -3 -0 3 2 -1 2 -4 -3 2 1 -2 -2 1 -2 -1 2 -0 -1 -0 -4 -3 -1 -0 -3 -1 2 1 -3 -4 8 5 2 5 11 4 12 25 -10 -4 -16 -5
-8 3 7 0 -5 -2 3 3 5 -5 -2 -1 -1 3 -0 -2 2 3 -2 1 4 1 5 2 -2 0 5 0 -0 -1 -4 -5 -5 -1 7 11 12 6 -4 -1 -16 -4 -1 -8 12 -16 -10
-0 -7 6 8 -9 -5 4 3 -3 3 -6 -1 0 -1 0 -3 -6 -5 -3 -3 0 4 3 -4 6 -2 1 -3 -2 5 -6 13 -1 -5 -1 7 13 -5 4 11 -8 4 -11 -1 1 -9 9
7 -4 2 1 -8 -2 4 -7 3 3 -0 -1 -3 -1 -1 1 -2 -4 -2 3 4 -2 3 -2 -1 1 -2 1 -3 -0 -1 4 0 -12 9 -9 15 8 23 -2 -7 1 -17 2 5 -2 7
Height
3162 3162 3163 3164 3163 3164 3164 3165 3166 3164 3164 3164 3164 3163 3160 3158 3157 3155 3153 3152 3150 3148 3144 3141 3138 3134 3132 3131 3129 3127 3125 3124 3122 3121 3121 3121 3120 3119 3119 3116 3114 3110 3110 3109 3109 3108 3106
3157 3157 3158 3159 3158 3159 3159 3160 3161 3159 3159 3159 3159 3158 3156 3154 3152 3150 3148 3147 3145 3143 3140 3136 3133 3130 3128 3126 3124 3122 3120 3118 3118 3117 3117 3117 3116 3115 3113 3111 3109 3107 3106 3104 3103 3101 3100
3152 3152 3154 3153 3153 3154 3155 3154 3155 3155 3153 3154 3153 3152 3150 3148 3147 3145 3143 3141 3139 3138 3135 3132 3128 3124 3122 3120 3118 3116 3115 3114 3113 3113 3112 3111 3110 3110 3108 3106 3102 3102 3098 3096 3095 3095 3094
3146 3147 3149 3148 3148 3149 3150 3150 3150 3149 3148 3147 3146 3146 3145 3142 3141 3140 3138 3135 3133 3132 3129 3126 3122 3118 3116 3113 3111 3110 3109 3108 3107 3107 3106 3104 3105 3105 3104 3101 3098 3096 3094 3090 3095 3090 3090
3140 3142 3144 3144 3144 3144 3144 3145 3145 3144 3143 3142 3141 3140 3139 3137 3135 3134 3132 3129 3127 3126 3124 3119 3116 3112 3109 3107 3106 3104 3104 3103 3102 3100 3099 3100 3100 3101 3099 3099 3098 3096 3089 3087 3086 3087 3085
3133 3136 3138 3139 3139 3139 3139 3140 3138 3137 3137 3136 3134 3134 3133 3132 3129 3129 3126 3123 3121 3120 3118 3112 3108 3109 3104 3101 3098 3096 3095 3095 3094 3094 3094 3094 3094 3094 3095 3096 3089 3088 3083 3081 3080 3082 3079
3127 3130 3131 3132 3134 3135 3134 3134 3133 3131 3131 3130 3129 3128 3128 3126 3123 3122 3121 3118 3115 3112 3112 3108 3103 3098 3094 3093 3091 3090 3090 3088 3086 3087 3088 3092 3090 3086 3089 3091 3087 3083 3080 3077 3077 3077 3073
3120 3123 3124 3126 3127 3128 3129 3129 3127 3126 3124 3125 3123 3121 3121 3119 3118 3117 3115 3112 3110 3106 3097 3099 3094 3090 3089 3088 3089 3087 3087 3087 3084 3083 3082 3085 3079 3084 3084 3082 3079 3078 3077 3072 3069 3069 3065
3114 3116 3117 3119 3120 3122 3123 3122 3122 3121 3119 3120 3118 3116 3116 3113 3113 3113 3110 3108 3104 3101 3100 3094 3090 3089 3089 3088 3087 3086 3085 3083 3082 3080 3079 3077 3078 3075 3074 3075 3074 3071 3072 3071 3069 3067 3062
3108 3110 3111 3111 3113 3115 3116 3115 3115 3113 3114 3114 3112 3110 3110 3108 3110 3107 3105 3104 3101 3097 3093 3090 3088 3087 3087 3085 3084 3084 3082 3082 3080 3077 3075 3073 3071 3069 3069 3070 3070 3067 3067 3066 3064 3063 3056
3100 3103 3103 3104 3105 3107 3109 3108 3109 3107 3105 3107 3106 3104 3104 3103 3103 3103 3102 3098 3097 3097 3094 3088 3084 3085 3084 3086 3084 3077 3078 3074 3076 3076 3074 3072 3067 3066 3065 3066 3065 3061 3060 3060 3059 3056 3053
3091 3094 3096 3096 3098 3099 3101 3101 3101 3100 3099 3100 3100 3098 3098 3098 3098 3098 3096 3094 3094 3096 3087 3081 3081 3081 3083 3082 3080 3077 3075 3071 3070 3067 3068 3066 3064 3061 3060 3060 3059 3057 3057 3056 3053 3052 3044
3083 3085 3088 3089 3090 3092 3092 3093 3093 3093 3092 3093 3093 3091 3092 3091 3091 3091 3090 3091 3092 3086 3082 3078 3075 3075 3074 3074 3072 3071 3068 3067 3066 3062 3062 3063 3062 3060 3050 3052 3053 3051 3052 3051 3046 3041 3031
3074 3076 3079 3079 3080 3082 3083 3084 3084 3085 3085 3085 3085 3084 3083 3084 3085 3085 3085 3085 3083 3074 3073 3070 3070 3068 3067 3066 3065 3062 3063 3064 3057 3057 3057 3053 3055 3051 3046 3047 3048 3048 3051 3051 3039 3027 3021
3064 3066 3067 3070 3069 3072 3073 3073 3074 3075 3076 3077 3077 3075 3073 3076 3076 3077 3078 3072 3068 3068 3065 3064 3064 3061 3061 3059 3061 3061 3058 3057 3054 3049 3057 3051 3048 3044 3041 3043 3044 3044 3044 3044 3039 3033 3032
3054 3056 3055 3057 3060 3061 3062 3064 3065 3065 3066 3067 3066 3066 3063 3066 3066 3066 3065 3060 3058 3059 3059 3058 3058 3055 3055 3056 3057 3057 3054 3051 3049 3047 3048 3047 3046 3040 3039 3039 3040 3039 3040 3038 3035 3027 3015
3043 3046 3047 3049 3051 3052 3052 3054 3055 3055 3056 3056 3055 3054 3051 3054 3056 3053 3050 3050 3050 3050 3052 3052 3050 3050 3047 3047 3050 3053 3049 3048 3046 3044 3046 3045 3044 3040 3036 3038 3038 3038 3036 3035 3032 3027 3016
3032 3035 3037 3040 3040 3042 3043 3044 3045 3044 3045 3045 3044 3043 3041 3042 3045 3038 3039 3041 3042 3041 3043 3044 3044 3042 3041 3042 3044 3046 3044 3041 3040 3040 3042 3041 3041 3031 3028 3027 3024 3028 3028 3028 3029 3022 3014
3021 3023 3027 3029 3030 3032 3033 3034 3035 3034 3037 3036 3033 3033 3030 3031 3031 3030 3030 3034 3034 3034 3035 3035 3037 3035 3037 3039 3042 3039 3037 3038 3036 3037 3037 3038 3039 3031 3015 3023 3023 3023 3023 3023 3021 3018 3006
3011 3013 3015 3016 3019 3020 3023 3024 3023 3022 3024 3025 3024 3024 3023 3022 3021 3023 3025 3027 3027 3026 3028 3029 3031 3031 3031 3032 3034 3033 3033 3032 3032 3034 3034 3033 3033 3033 3027 3020 3025 3015 3016 3014 3013 3007 2998
3001 3003 3000 3005 3006 3009 3011 3012 3013 3011 3013 3016 3013 3010 3010 3012 3015 3017 3019 3020 3019 3022 3023 3024 3026 3027 3027 3027 3027 3028 3029 3028 3026 3025 3025 3026 3025 3025 3022 3016 3013 3010 3004 3000 3001 2996 2992
2989 2991 2990 2991 2996 2998 2998 3000 3001 3002 3002 3004 3003 3005 3004 3005 3010 3012 3011 3011 3013 3015 3019 3019 3019 3024 3022 3021 3022 3023 3022 3022 3021 3020 3019 3021 3018 3016 3011 3009 3006 2999 2992 2989 2986 2985 2980
2980 2980 2982 2983 2984 2986 2987 2989 2990 2991 2993 2993 2994 2999 3003 3001 3001 3005 3005 3006 3009 3010 3010 3012 3014 3016 3015 3016 3015 3015 3014 3014 3013 3012 3013 3013 3011 3011 3004 3003 2999 2993 2985 2982 2979 2977 2973
2973 2975 2975 2974 2975 2977 2978 2980 2981 2983 2986 2989 2993 2995 2995 2996 2998 2999 3001 3003 3005 3006 3007 3007 3008 3009 3009 3009 3008 3008 3007 3006 3005 3004 3004 3004 3005 3006 3000 2997 2990 2983 2981 2976 2973 2971 2967
2965 2966 2967 2968 2968 2970 2972 2975 2978 2981 2984 2985 2986 2988 2988 2988 2992 2995 2997 2997 3001 3002 3003 3003 3003 3002 3003 3004 3003 3001 3002 3000 2997 2997 2996 2997 2999 2997 2994 2986 2982 2980 2975 2974 2969 2951 2957
2957 2960 2961 2963 2964 2966 2969 2972 2973 2975 2978 2980 2981 2983 2984 2986 2986 2990 2992 2994 2996 2996 2997 2996 2996 2996 2999 2999 2999 2998 2995 2993 2994 2993 2993 2993 2991 2992 2988 2983 2977 2974 2973 2967 2965 2950 2950
2954 2956 2958 2958 2961 2966 2968 2969 2969 2970 2974 2975 2978 2979 2979 2981 2984 2985 2987 2990 2990 2990 2992 2991 2992 2993 2992 2991 2993 2994 2992 2989 2989 2988 2989 2987 2986 2984 2981 2976 2973 2973 2967 2963 2959 2954 2943
2952 2955 2957 2954 2958 2964 2965 2965 2965 2966 2969 2971 2973 2973 2975 2975 2977 2980 2983 2985 2986 2986 2987 2989 2991 2986 2987 2988 2989 2988 2987 2985 2983 2984 2984 2983 2981 2979 2975 2972 2971 2966 2963 2961 2955 2945 2941
2952 2955 2954 2952 2954 2958 2959 2960 2963 2963 2964 2967 2970 2969 2969 2971 2973 2974 2976 2978 2979 2981 2982 2982 2986 2983 2982 2983 2983 2984 2983 2982 2980 2978 2978 2978 2976 2973 2970 2965 2962 2962 2956 2952 2948 2943 2937